Location: Stockholm
(59.3333°N, 18.0500°E)
Time: 01:41:19
(UTC+02:00)

ISS - Pass Details

Date: 20 March 2021
Orbit: 418 x 421 km, 51.6° (Epoch: 07 May)

Event Time Altitude Azimuth Distance (km) Brightness Sun altitude
Rises 19:31:11 0° 207° (SSW) 2,363 0.1 -11.8°
Reaches altitude 10° 19:34:24 10° 174° (S) 1,502 -1.2 -12.2°
Enters shadow 19:35:13 11° 160° (SSE) 1,417 -1.5 -12.3°
